Regional Weather Roundup
Issued by NWS

Home | Current Version | Previous Version | Graphics & Text | Print | Product List | Glossary On
Versions: 1 2 3 4 5 6 7 8 9 10 11 12 13 14 15 16 17 18 19 20 21 22 23 24 25 26 27 28 29 30 31 32 33 34 35 36 37 38 39 40 41 42 43 44 45 46 47 48 49 50
000
ASUS45 KSLC 292210
RWRUT

UTAH REGIONAL WEATHER ROUNDUP
NATIONAL WEATHER SERVICE SALT LAKE CITY UT
400 PM MDT SAT AUG 29 2015

UTZ001>011-023>025-292300-

NORTHERN UTAH

CITY           SKY/WX    TMP DP  RH WIND       PRES   REMARKS
BRIGHAM CITY   PTSUNNY   95  33  11 SW13G21   29.97F
HILL AFB       MOSUNNY   93  44  18 S18       30.02F
LOGAN          SUNNY     93  42  17 SW16G23   29.99F
OGDEN          CLOUDY    95  41  15 S20G26    29.98F HX  91
PROVO AIRPORT  PTSUNNY   93  45  18 VRB6      30.02F
SALT LAKE CITY CLOUDY    95  38  13 SE17G24   29.96F HX  90
VERNAL         SUNNY     89  34  14 S8        30.13F
WENDOVER       CLOUDY    97  39  13 S21G26    29.92F HX  92
HEBER CITY     PTSUNNY   90  37  15 W14       30.11F
WEST JORDAN    MOSUNNY   91  43  18 SE15      30.01F

$$

UTZ012>022-026-027-292300-

SOUTHERN/CENTRAL UTAH

CITY           SKY/WX    TMP DP  RH WIND       PRES   REMARKS
BLANDING       SUNNY     88  33  14 S9        30.28F
BRYCE CANYON   MOSUNNY   80  42  25 S13       30.34F
CEDAR CITY     MOSUNNY   90  40  17 SW16      30.12F
DELTA          MOSUNNY   96  34  11 SW21G26   30.02F HX  91
HANKSVILLE     SUNNY     95  34  11 S6        30.09F HX  90
MILFORD        MOSUNNY   93  45  19 SW12      30.05F
MOAB/CYNLANDS  SUNNY     95  38  13 N8        30.07F HX  90
PRICE          PTSUNNY   88  32  13 MISG      30.18F
ST GEORGE      MOCLDY   102  50  17 S9        29.92F HX  99

$$

REGIONAL REPORTS     COLORADO/ARIZONA

CITY           SKY/WX    TMP DP  RH WIND       PRES   REMARKS
CRAIG, CO      MOSUNNY   89  32  13 VRB3      30.20F
GRAND JUNCTION SUNNY     89  44  20 SW8       30.11F
RIFLE          MOSUNNY   90  40  17 W9        30.16F
MONTROSE       SUNNY     89  39  17 N9        30.19F
CORTEZ         SUNNY     89  39  17 SW14      30.21F
PAGE, AZ       SUNNY     98  37  12 N8        30.05F HX  93
GRAND CANYON   MOSUNNY   83  40  21 NE3       30.27F
KINGMAN        PTSUNNY   99  48  17 S13G20    29.99F HX  95
FLAGSTAFF      PTSUNNY   81  42  25 S12       30.31F

$$

REGIONAL REPORTS    NEVADA/IDAHO/WYOMING

CITY           SKY/WX    TMP DP  RH WIND       PRES   REMARKS
LAS VEGAS, NV  MOSUNNY  107  45  12 SW15G25   29.80F HX 102
ELY            PTSUNNY   87  39  18 S17G31    30.12F
ELKO           PTSUNNY   91  36  14 SW18G29   29.95F
POCATELLO, ID  MOSUNNY   94  41  16 SW22G35   29.93F HX  90
EVANSTON, WY   PTSUNNY   85  36  17 SW16G25   30.23F
ROCK SPRINGS   MOSUNNY   85  28  12 VRB3      30.20F
KEMMERER       PTSUNNY   82  30  15 SW16G22   30.24F

$$



USA.gov is the U.S. government's official web portal to all federal, state and local government web resources and services.